User: anonymous   Login
Location: Passau
(48.5830°N, 13.4830°E)
Time: 14:24:34
(UTC+02:00)
Language:

Transit 2A - Orbit

View from above orbital plane
View from above orbital plane
View from above satellite
View from above satellite

Ground track
Ground track

The orbit data is extracted from the following two-line orbital elements,

1 00045U 60007A   24138.94098095  .00000680  00000-0  19305-3 0  9999
2 00045  66.6937 209.4317 0253742 352.2529   7.4680 14.34696185270938
Epoch (UTC): 17 May 2024 22:35:00
Eccentricity: 0.0253742
inclination: 66.6937°
perigee height: 594 km
apogee height: 957 km
right ascension of ascending node: 209.4317°
argument of perigee: 352.2529°
revolutions per day: 14.34696185
mean anomaly at epoch: 7.4680°
orbit number at epoch: 27093

The dashed part of the orbit path shows where the satellite is in the earth's shadow,  

DLR